Wind_Speed
47 45 43 42 40 37 36 33 32 31 29 25 23 25 29 30 30 29 29 31 34 36 36 35 34 31 27 26 24 21 20 21 23 25 25 24 24 25 28 35 39 41 44 46 46 45 43 40 39 39 37 35 33 33 36 41 42 40 37 35 34 33 30 27 25 24 25 26 25 25 25 24 23 21 21 20 19 18 17 17 18 18 17 18 19
43 42 40 38 36 34 34 33 31 31 30 27 24 25 28 31 31 31 31 33 36 37 36 35 34 32 28 25 23 20 20 22 24 25 24 23 24 25 28 34 40 41 42 44 45 45 45 42 40 39 38 37 33 30 30 36 40 40 37 35 35 34 32 28 25 24 25 26 26 25 25 25 24 23 21 19 18 17 17 17 18 19 19 19 20
39 38 36 35 33 30 32 33 31 31 30 28 27 27 28 30 31 32 34 35 37 38 37 36 35 34 29 24 22 21 21 23 25 25 24 23 24 26 28 32 38 43 43 43 44 44 45 44 42 40 39 38 35 31 28 29 35 38 37 36 36 36 34 31 26 25 26 27 27 26 27 26 24 22 20 18 18 18 17 18 19 20 21 21 21
36 35 34 33 32 29 29 31 30 30 32 30 29 29 30 31 32 33 35 37 39 40 39 38 37 35 32 26 24 24 25 26 27 27 26 24 24 26 28 30 35 41 45 45 44 43 43 44 43 42 41 40 37 34 30 28 30 34 36 37 37 37 36 34 30 28 28 30 29 28 28 26 23 22 20 18 19 18 18 18 19 21 22 23 23
32 31 32 33 32 29 28 32 32 29 32 33 31 30 32 33 32 33 36 38 40 41 41 41 40 39 36 30 26 27 28 29 30 28 27 25 25 26 28 31 32 37 44 46 46 44 42 42 42 41 41 40 38 35 33 31 32 33 35 36 36 36 36 36 33 31 31 32 32 30 28 24 23 23 20 19 19 18 18 19 20 22 23 24 24
32 31 31 31 32 31 30 34 34 31 32 34 34 33 33 34 33 32 35 39 41 42 42 42 42 41 38 33 30 30 30 31 32 30 27 25 23 24 26 30 32 33 39 45 47 45 44 42 40 39 39 39 38 36 35 35 35 35 36 36 35 35 34 34 34 34 34 35 34 31 28 24 24 25 22 20 19 19 19 19 20 22 24 26 26
32 33 32 30 31 33 33 33 34 35 35 32 32 34 35 34 34 34 34 38 41 42 42 41 40 40 38 35 34 32 32 32 34 32 27 24 22 22 23 27 30 31 33 40 47 48 46 44 42 40 39 37 37 36 36 36 36 37 37 37 37 36 34 32 33 35 36 38 36 32 29 27 26 27 25 24 23 23 22 21 21 22 25 27 27
30 31 31 30 30 34 37 37 35 35 36 33 28 31 36 35 34 35 34 35 40 42 42 41 39 39 38 38 36 34 34 33 34 34 29 24 22 22 22 23 26 29 31 35 43 49 48 47 46 44 42 40 38 38 37 37 37 36 36 36 37 37 35 33 33 34 36 38 37 34 31 30 29 30 29 29 28 28 26 24 23 23 24 27 28
28 27 27 27 29 33 37 40 39 35 36 37 31 28 33 37 37 38 36 35 38 42 43 42 40 40 40 38 36 35 36 34 33 35 33 27 22 22 22 22 24 27 30 32 37 46 49 49 48 47 45 44 42 41 40 40 39 37 35 35 35 35 34 32 31 32 33 36 37 36 34 33 33 34 34 32 32 32 30 26 25 24 24 27 28
26 25 25 26 29 33 36 38 40 38 38 39 37 33 32 36 39 40 40 39 38 40 42 43 42 42 40 38 36 35 37 37 34 35 36 30 22 21 24 24 24 25 28 31 34 41 48 49 49 48 47 45 43 42 42 42 42 40 37 35 34 33 32 31 31 31 32 32 34 37 37 37 37 38 37 35 34 36 34 29 27 26 26 27 28
25 25 26 29 31 34 36 38 40 40 41 40 39 39 37 38 39 40 41 42 41 40 40 42 43 42 40 37 36 35 37 38 35 35 38 33 24 21 24 24 24 24 25 29 33 38 45 49 49 49 48 46 45 43 42 42 42 42 40 38 37 35 34 33 33 33 32 31 33 36 39 40 42 41 38 36 35 34 32 29 28 27 26 25 26
25 26 27 29 31 33 35 38 40 40 42 42 40 39 40 41 40 39 40 42 43 43 42 42 42 40 37 34 34 36 38 39 37 37 39 37 28 22 23 25 24 23 23 26 32 36 41 46 49 50 49 48 47 45 43 41 40 40 39 39 39 39 38 37 37 37 36 35 35 36 38 39 40 38 34 31 29 28 28 28 29 28 25 25 26
26 26 27 29 30 32 33 36 39 40 43 47 46 41 38 38 39 39 41 43 44 43 43 42 41 39 36 34 34 35 38 39 38 39 40 39 33 26 23 25 24 23 22 23 28 33 38 42 46 49 50 50 49 47 45 44 42 39 38 37 39 39 39 38 39 39 39 39 37 35 34 34 32 30 28 26 26 26 28 29 29 28 26 26 27
27 27 27 28 29 31 32 35 39 41 44 48 51 48 42 39 39 40 42 45 45 44 44 44 43 41 38 37 36 35 37 39 39 41 42 40 37 32 27 25 26 25 23 22 24 28 33 38 43 46 48 49 49 48 47 46 45 43 41 38 37 37 38 38 38 38 38 37 35 32 30 29 29 28 28 27 28 29 30 30 30 29 28 28 28
28 27 27 28 29 30 31 34 37 41 44 47 50 52 49 44 42 42 43 45 46 46 46 47 46 44 41 41 40 37 36 39 40 41 42 41 39 37 32 29 29 29 27 24 24 24 27 32 38 43 45 47 48 48 48 48 47 46 45 42 39 36 36 38 38 36 34 33 32 31 30 31 31 31 30 30 30 31 32 31 30 30 29 29 29
29 29 28 28 29 30 30 32 36 39 43 47 51 53 51 48 46 44 44 45 46 46 48 49 49 47 45 44 44 41 38 38 41 42 42 42 40 38 36 33 32 31 29 26 24 23 24 26 31 37 42 44 46 47 48 48 47 47 46 45 43 39 37 37 38 36 34 33 33 33 33 34 34 33 32 31 32 32 33 32 32 32 31 31 31
30 30 29 29 29 30 30 31 34 37 39 43 49 53 53 51 49 47 45 45 46 47 48 50 51 51 49 47 46 45 42 39 41 44 45 44 42 40 38 36 34 32 29 27 25 24 24 24 26 30 36 40 42 44 46 47 47 47 47 46 45 43 40 38 38 37 36 35 35 35 35 35 35 35 33 33 33 34 34 34 34 34 33 33 32
31 31 31 30 30 30 30 31 33 35 37 40 44 49 53 54 53 50 48 46 46 47 47 48 51 52 51 49 48 47 46 44 44 45 46 46 44 42 40 38 35 33 30 28 27 26 25 25 24 26 30 34 37 40 42 44 46 47 47 46 46 46 44 42 40 39 38 38 37 37 37 36 36 36 35 35 35 36 37 37 37 36 35 35 34
31 32 32 31 31 31 31 31 33 34 36 39 41 45 50 54 54 52 49 48 47 47 47 47 49 51 52 50 49 49 49 49 48 47 47 47 45 44 42 39 37 35 33 31 29 28 27 27 26 25 26 29 33 36 38 40 42 45 46 47 47 47 47 46 46 45 43 42 41 40 39 38 38 37 37 38 39 39 39 39 38 38 37 36 36
32 32 33 33 32 32 32 32 33 34 35 37 40 43 47 51 54 53 50 48 48 47 47 47 47 49 51 51 50 50 50 51 50 49 48 47 46 45 44 41 39 38 36 34 32 30 30 29 29 28 27 28 29 32 35 37 39 41 43 46 48 49 49 49 49 49 49 47 45 44 42 41 41 41 40 41 42 42 41 40 40 40 39 39 38
33 33 34 34 34 33 33 33 33 34 35 37 39 42 45 48 51 54 53 49 49 49 48 48 48 48 50 51 51 51 52 52 51 50 49 49 49 48 46 44 42 41 40 38 35 34 33 33 32 31 30 30 30 31 32 34 36 38 40 43 46 49 50 51 51 51 51 50 48 46 45 44 44 44 44 45 45 44 43 42 42 42 42 41 41
35 35 35 35 35 35 34 35 35 35 36 37 38 40 43 46 48 53 55 53 51 51 50 50 50 50 51 52 52 52 53 53 53 52 52 51 50 49 48 47 45 43 42 40 39 38 37 37 36 34 32 32 33 34 34 34 34 35 36 39 44 47 50 52 53 53 52 51 50 49 47 46 46 47 48 48 47 46 45 43 44 44 44 44 43
36 36 37 37 37 37 36 36 36 37 37 38 39 40 42 44 46 49 54 56 56 53 51 51 52 52 53 53 53 53 54 55 55 55 54 52 51 51 49 48 47 46 44 43 42 42 42 41 40 38 35 35 35 36 37 37 36 35 35 37 41 45 48 51 53 53 53 52 51 51 49 48 48 49 50 51 50 48 47 46 46 47 47 47 46
39 38 38 38 38 39 38 38 38 38 39 39 40 40 41 43 44 46 49 55 59 58 54 53 53 53 54 54 54 55 55 56 57 57 56 54 53 53 52 50 48 48 47 45 46 46 45 45 44 42 40 38 38 38 38 39 39 38 36 36 39 42 45 48 52 54 54 54 53 53 51 50 50 51 52 54 53 51 50 50 49 48 49 49 48
41 41 40 39 40 40 40 41 40 40 40 41 41 41 42 42 44 45 46 49 54 57 57 56 55 55 56 56 56 57 57 58 58 58 58 56 54 53 53 53 50 49 49 48 48 49 49 49 48 45 44 43 41 40 40 41 41 41 39 38 38 40 42 46 50 53 55 55 55 54 54 53 53 54 55 55 55 54 53 52 52 50 49 49 49
44 43 42 42 41 41 42 42 43 42 42 42 42 43 43 44 44 45 46 47 49 52 54 56 58 57 57 58 59 59 60 60 60 61 60 59 58 56 55 54 52 51 51 50 50 50 52 52 51 49 48 47 45 43 43 43 43 43 43 41 40 39 40 43 46 50 54 56 56 56 56 55 55 56 56 56 55 54 53 53 54 52 49 48 49
46 45 44 44 43 43 43 43 44 44 44 44 44 45 45 46 46 47 47 48 49 49 50 53 58 60 59 60 60 61 61 62 62 62 63 62 62 60 58 57 56 55 54 54 54 55 56 56 55 54 53 51 48 47 46 47 46 46 45 45 43 40 40 41 43 45 49 54 56 57 57 57 57 57 57 57 56 55 53 54 55 54 51 48 48
47 47 47 46 46 45 45 44 44 45 45 46 46 46 47 47 48 49 49 50 51 51 51 51 55 60 62 62 61 62 63 64 64 64 64 64 64 64 63 62 61 60 59 59 60 61 61 60 59 58 57 55 52 51 50 51 51 50 48 48 47 44 42 42 42 43 46 49 53 57 59 59 58 58 57 57 56 55 55 55 55 55 52 48 46
47 48 48 48 48 47 47 46 46 46 47 47 48 48 49 49 50 51 51 52 53 53 54 54 54 57 61 64 63 63 64 64 65 66 66 66 66 65 65 65 65 64 63 64 66 67 66 64 63 62 60 57 56 56 55 55 56 54 52 51 50 49 47 45 42 43 45 46 48 54 58 59 59 59 59 58 57 57 57 57 56 54 52 48 43
48 49 49 49 49 49 49 49 48 48 48 49 49 50 51 51 52 53 53 54 55 55 56 57 57 57 59 62 65 66 65 64 64 65 67 69 69 68 67 67 67 67 67 68 70 72 71 68 67 65 63 60 59 60 60 60 60 58 56 55 53 52 51 50 46 43 44 45 45 49 53 56 58 59 59 60 59 59 58 58 56 53 50 47 41
50 50 51 51 51 51 51 51 50 50 50 50 51 51 52 53 53 54 55 55 56 57 58 58 60 60 60 61 64 66 67 67 66 65 65 67 69 71 71 70 70 69 70 70 72 75 74 71 69 68 66 64 63 63 64 64 63 61 60 59 57 55 53 53 52 48 45 44 43 46 49 51 54 56 58 60 59 59 57 55 53 51 49 46 41
52 52 53 53 53 54 53 53 53 53 53 53 53 53 54 54 55 56 57 57 58 59 59 60 61 62 63 63 64 65 67 69 69 69 68 67 67 69 71 73 73 72 72 72 73 76 77 75 74 73 72 70 68 67 66 66 65 64 63 63 61 58 56 56 56 53 50 46 43 44 46 48 51 54 55 55 55 55 53 51 50 48 46 44 41
55 55 55 56 56 56 56 56 56 56 56 55 55 55 55 56 57 57 58 59 60 61 61 62 63 63 64 65 65 66 68 69 70 70 70 70 69 69 69 70 72 74 74 74 75 76 77 78 78 77 76 74 72 71 69 67 67 66 66 65 64 61 59 58 58 56 55 51 48 46 45 46 49 50 49 50 51 51 50 49 48 46 45 44 41
59 58 59 59 59 59 59 60 60 59 59 58 58 58 58 58 58 59 60 60 62 63 63 64 65 65 66 66 67 68 69 70 71 72 72 72 72 72 72 71 71 72 73 74 75 75 74 76 77 77 77 76 75 75 73 70 69 68 66 66 65 64 62 60 60 59 57 55 54 51 49 48 48 46 45 46 50 50 48 48 47 46 45 45 43
62 62 62 62 62 62 62 63 63 63 62 61 61 61 61 61 61 61 62 62 63 64 65 66 66 67 68 68 69 69 70 71 72 73 74 74 75 74 74 74 74 73 72 71 72 73 72 73 75 75 76 76 76 76 75 72 70 69 68 66 66 66 65 63 62 62 60 58 57 56 54 52 50 47 46 47 49 50 49 47 47 46 46 46 46
66 66 66 66 65 65 65 66 66 66 65 65 64 64 64 64 64 64 64 64 64 65 65 66 67 68 69 70 71 71 72 73 74 74 75 76 76 76 77 77 76 76 75 74 73 72 72 72 74 75 74 74 75 75 74 72 70 69 69 68 67 67 67 67 65 65 63 61 60 59 58 57 54 52 51 50 51 51 50 48 48 48 47 48 48
70 70 69 69 69 69 69 69 69 68 68 68 68 67 67 67 67 67 67 67 67 66 66 67 68 69 70 72 72 73 73 74 75 76 76 76 77 77 78 78 78 77 77 76 75 74 73 73 74 76 75 75 74 74 74 72 71 70 70 70 70 69 69 70 69 68 66 63 62 62 61 61 59 57 56 55 54 53 52 52 51 50 49 49 49
73 73 73 73 72 72 72 72 71 71 71 71 70 70 70 70 71 71 71 70 70 69 69 70 70 71 72 72 73 73 74 75 75 76 76 76 77 77 78 78 79 78 78 78 77 75 75 74 75 76 77 76 75 75 75 74 73 72 72 71 71 71 71 72 72 71 69 67 66 65 64 64 64 63 61 60 58 56 55 55 55 54 53 52 52
75 76 76 75 75 75 76 75 74 74 74 73 73 73 73 74 74 74 73 73 73 73 73 74 74 74 74 74 74 74 75 75 76 77 77 77 77 77 78 78 78 78 78 79 78 77 76 76 76 77 78 78 77 77 78 76 74 74 74 73 72 73 73 73 73 73 73 72 70 68 68 67 67 67 67 65 62 60 59 59 59 59 58 57 56
77 77 77 77 78 78 77 77 76 76 76 76 76 77 77 77 77 76 76 76 76 76 77 77 77 77 77 77 77 77 77 77 77 78 78 78 78 78 78 79 79 79 79 79 79 78 77 77 77 78 79 79 79 80 81 80 77 76 76 75 74 74 75 74 75 75 75 74 73 72 71 71 70 70 70 70 68 65 64 63 62 63 63 62 61
80 80 79 79 80 80 79 78 78 78 78 79 79 80 80 80 80 79 79 79 79 79 80 80 80 80 80 80 80 80 80 79 80 80 80 80 80 80 80 80 79 79 79 79 79 79 78 77 77 78 79 79 80 81 82 83 81 78 77 76 75 76 76 75 76 77 77 76 76 75 75 74 74 73 72 72 72 70 69 67 66 66 67 67 66
83 83 83 83 83 83 81 80 79 79 80 81 82 82 82 82 82 82 82 82 82 82 82 82 83 83 83 83 83 83 83 82 82 82 83 83 83 82 83 83 82 81 81 80 80 80 79 77 77 78 78 79 81 82 83 84 83 82 80 78 76 77 77 76 76 78 78 78 79 78 78 77 76 75 75 75 75 74 73 72 71 70 69 69 69
85 86 86 86 86 86 85 83 82 82 83 83 84 84 84 83 84 84 84 84 84 84 84 84 85 85 85 84 85 85 85 85 85 85 85 86 86 85 85 86 86 85 84 83 83 82 81 79 78 78 78 79 82 83 83 84 84 83 82 80 78 77 77 77 78 79 79 79 80 80 80 79 79 79 78 78 78 77 76 75 74 73 72 72 73
87 87 87 87 87 88 88 87 87 87 87 87 87 86 86 85 85 85 85 85 86 86 86 86 86 86 86 86 86 86 87 87 87 87 88 88 88 88 88 88 89 89 88 87 87 86 84 82 81 80 79 80 82 84 83 83 84 84 83 81 80 79 78 78 79 80 81 80 80 81 82 82 82 82 82 81 80 79 79 78 77 76 75 76 76
86 86 87 87 87 87 88 89 90 91 91 91 90 90 89 89 88 88 87 87 87 87 87 87 87 87 87 87 87 87 88 88 88 89 89 90 90 91 91 91 92 92 92 91 90 90 89 87 84 84 84 83 83 84 85 83 83 83 83 82 82 81 80 79 79 81 82 81 81 82 83 84 84 84 84 84 83 82 82 81 81 80 79 79 79
85 86 85 85 86 87 88 89 91 92 93 93 93 93 93 93 92 92 91 90 89 89 89 88 88 88 88 88 88 88 89 89 89 90 90 90 91 92 93 93 94 95 95 94 93 92 92 90 88 87 88 87 85 86 87 85 82 82 83 83 83 82 81 80 80 81 82 83 83 83 84 85 85 85 85 86 86 85 85 84 84 83 82 82 81
87 89 89 87 85 86 88 90 92 93 94 94 95 95 96 96 95 95 94 93 92 92 92 92 92 91 91 90 90 90 90 91 91 91 91 91 92 93 94 95 96 97 97 96 95 94 93 92 90 89 90 90 88 88 89 88 85 83 84 84 83 83 82 81 81 82 83 84 85 85 85 87 87 86 86 87 87 87 87 86 85 85 84 83 83
88 90 91 89 86 86 88 90 92 93 93 93 94 95 96 97 97 97 96 95 95 95 95 95 95 94 94 93 92 92 92 93 94 94 94 95 95 96 97 98 99 99 99 98 97 95 93 92 91 90 90 91 90 90 91 91 88 87 86 84 83 83 83 82 82 83 84 85 86 85 86 87 88 87 87 87 87 87 87 87 87 86 85 84 84
86 87 88 87 86 86 89 92 94 94 94 94 94 94 95 95 96 96 96 96 96 96 96 96 96 96 95 94 94 94 94 95 96 97 98 99 99 100 101 103 104 104 102 100 98 96 94 92 90 89 89 89 91 91 91 92 92 90 88 86 85 86 84 83 83 84 86 87 87 86 86 87 89 89 88 88 88 87 87 87 87 86 86 85 85
83 85 84 83 82 85 90 94 95 95 94 94 93 93 93 94 94 94 94 95 95 95 96 96 96 96 96 95 95 95 95 96 98 100 101 102 103 104 106 107 107 106 104 103 101 98 95 92 90 88 88 88 89 90 91 92 93 93 90 88 89 89 86 84 84 86 87 88 88 88 87 87 89 90 89 88 88 87 86 86 86 86 86 85 85
80 82 82 81 80 84 90 95 96 95 94 94 93 92 91 91 91 92 92 92 92 92 92 92 92 92 93 93 94 94 95 96 98 100 102 104 105 108 110 111 109 106 105 104 102 100 97 94 92 91 89 89 89 90 91 92 93 93 91 90 92 92 89 86 87 88 88 88 89 90 89 88 90 91 89 88 87 86 85 86 86 86 86 86 85
Wind_Direction
281 279 277 274 273 271 268 263 255 250 241 238 239 233 227 223 226 233 238 239 241 246 248 248 237 225 229 233 235 244 251 259 263 256 245 243 245 244 238 231 231 232 233 235 235 233 232 234 235 234 233 234 240 248 253 253 250 247 248 251 254 253 250 250 253 253 253 252 251 253 253 253 254 262 272 273 270 266 264 268 274 283 289 293 298
280 277 273 271 268 265 262 257 248 245 238 234 234 232 228 225 228 235 239 239 241 243 242 242 235 227 231 235 236 243 251 257 258 253 246 244 244 244 240 233 230 231 233 235 236 235 234 235 235 235 236 237 239 245 251 252 248 245 247 252 257 258 256 253 253 252 252 252 251 252 254 256 260 267 270 267 263 261 260 266 274 283 289 291 295
276 273 269 265 262 258 255 253 247 239 233 231 231 230 230 228 228 234 237 238 238 238 235 233 232 230 234 239 240 244 249 251 250 249 248 247 245 243 241 237 232 230 230 234 236 236 236 235 236 237 239 240 241 243 247 248 245 244 247 252 256 258 258 255 253 251 252 252 252 254 257 261 265 266 264 261 257 258 261 267 274 282 287 289 292
273 268 264 259 254 249 244 246 246 235 227 229 233 230 230 231 232 236 239 237 235 235 230 228 229 230 235 240 244 247 248 247 245 245 246 247 249 248 244 241 236 232 230 233 236 236 236 235 236 238 241 243 244 244 244 243 242 242 245 249 253 256 257 256 252 250 251 253 254 255 259 263 264 261 259 257 256 259 264 269 275 280 284 288 292
269 265 260 253 246 238 229 231 236 234 229 229 233 232 231 233 234 238 240 237 234 232 228 226 228 231 235 241 245 248 248 246 243 242 245 248 252 254 250 245 240 236 232 232 236 237 235 234 236 238 241 244 245 245 244 243 242 242 245 249 253 256 257 257 254 251 252 254 256 257 260 263 261 258 256 256 257 262 267 271 276 279 282 287 291
258 258 256 248 240 231 222 224 227 228 230 229 230 232 234 235 234 234 234 234 233 230 226 226 229 232 237 244 248 248 247 245 241 240 244 248 254 258 256 249 243 240 236 233 234 236 235 233 233 235 237 241 244 244 244 245 245 246 248 251 254 256 256 256 256 253 252 254 256 256 258 259 257 256 255 257 261 264 269 273 275 277 280 284 289
253 252 251 245 237 227 220 221 223 223 224 226 228 230 233 237 235 229 228 229 230 227 224 226 232 235 240 248 251 249 247 243 239 238 239 245 254 261 260 254 247 242 240 236 234 235 236 234 233 234 235 237 241 243 244 246 247 249 251 253 256 256 254 252 252 252 251 253 254 255 255 255 256 257 257 260 266 267 269 273 275 274 276 280 285
252 248 245 241 235 228 220 217 218 221 219 218 223 229 232 233 231 226 225 228 228 226 225 227 232 237 242 248 251 249 248 245 241 238 235 239 250 259 261 257 251 245 241 239 236 235 236 236 236 236 236 237 239 242 244 246 248 251 253 254 255 253 252 251 250 251 251 251 252 253 253 253 256 258 260 264 269 270 268 271 274 273 271 275 281
249 243 239 235 233 232 226 217 214 216 216 215 216 224 229 228 226 224 223 226 229 228 227 228 231 237 244 248 249 249 250 248 245 240 235 234 243 257 262 260 257 250 243 240 237 235 235 237 238 239 239 239 240 242 244 246 248 250 253 254 253 250 249 250 251 252 254 254 252 251 250 251 255 259 261 265 268 270 269 269 272 272 269 271 277
245 237 231 230 229 231 228 218 212 212 212 213 214 219 225 226 224 223 222 224 227 229 231 232 233 238 243 246 247 249 251 251 248 243 235 230 236 255 262 262 261 257 248 242 238 235 234 235 238 240 241 242 242 244 245 246 247 249 250 251 250 248 248 250 252 255 258 260 258 252 249 250 253 257 261 263 265 267 267 266 268 271 270 269 275
243 235 229 228 227 229 228 219 214 212 209 211 215 220 226 227 224 222 223 225 226 226 229 233 235 237 240 244 247 249 252 253 250 243 236 231 229 244 259 262 263 260 252 246 240 236 235 236 237 240 242 243 244 246 246 247 248 248 248 249 249 249 251 254 256 258 260 264 265 258 252 250 252 256 260 262 263 263 262 262 266 270 269 271 278
245 238 233 231 229 229 229 223 219 217 213 212 213 217 224 229 226 223 223 225 225 224 226 229 231 233 237 243 247 248 250 252 250 242 236 233 227 230 249 260 263 260 254 248 243 239 237 237 239 240 242 244 245 246 246 247 248 248 248 248 249 251 253 255 258 260 261 264 269 264 255 253 253 256 258 259 258 257 256 260 265 266 267 273 281
248 243 238 236 233 230 229 225 222 220 219 217 216 215 219 225 227 225 225 226 226 225 225 227 230 232 234 239 245 247 248 249 247 241 236 235 231 226 236 252 258 257 253 248 243 242 241 240 240 241 243 245 246 247 246 246 247 248 248 247 249 251 253 255 257 260 262 264 268 264 254 252 252 252 254 255 256 256 258 261 263 262 265 274 280
250 246 242 241 238 233 230 227 222 220 219 220 221 221 221 223 227 229 228 228 227 226 226 226 229 232 231 234 240 243 244 245 244 241 237 237 236 230 227 238 249 252 250 248 244 242 242 242 242 243 244 246 247 248 247 248 248 249 250 249 248 249 251 253 255 257 261 262 261 254 248 248 250 252 255 257 259 260 260 260 260 261 266 273 279
253 248 245 243 242 237 232 229 225 221 220 220 222 223 223 223 226 228 229 228 228 227 226 226 228 230 230 231 235 238 240 242 242 241 239 238 238 236 230 230 238 244 246 247 247 246 244 244 244 244 246 247 248 249 249 249 249 250 251 251 250 249 248 249 251 253 254 254 251 247 247 251 253 255 257 259 260 260 259 258 258 262 269 275 281
254 251 247 245 244 241 236 231 228 224 222 221 222 223 220 220 222 224 226 227 227 228 227 226 226 228 231 233 233 235 237 238 239 239 238 237 237 237 236 233 234 238 243 246 250 252 251 249 246 245 245 247 248 249 250 250 251 251 252 252 251 250 248 246 246 247 247 247 249 251 254 256 256 256 257 258 258 257 256 256 260 266 272 277 283
253 252 250 247 246 244 239 234 230 227 225 224 224 224 220 218 221 222 225 226 227 228 229 229 228 228 231 234 233 234 235 236 235 235 236 237 237 236 237 237 236 238 242 246 249 253 255 255 252 249 246 247 248 249 250 251 251 252 252 252 251 250 249 246 244 245 247 249 252 254 256 257 257 257 257 256 254 253 255 259 264 269 274 278 283
252 252 251 249 248 246 243 237 233 230 228 225 226 226 222 220 222 225 228 229 228 229 229 230 229 229 231 233 233 232 233 234 234 235 236 238 239 238 237 237 238 240 244 247 249 253 256 258 258 255 251 249 250 251 251 251 252 252 252 252 251 250 249 247 244 245 248 252 254 255 255 255 255 255 255 253 252 252 256 261 266 270 273 278 283
250 251 251 251 249 248 247 242 236 232 230 227 227 227 225 223 224 226 229 230 229 229 229 229 229 229 229 231 232 232 232 235 237 238 239 239 239 239 237 237 237 240 245 247 250 254 256 258 259 259 257 254 252 253 254 253 253 252 252 252 251 250 250 249 248 248 250 253 255 255 255 254 252 252 252 252 253 255 259 263 267 270 274 278 283
250 249 250 251 250 249 248 246 241 235 232 230 228 227 227 227 226 225 228 229 227 227 230 230 228 227 227 228 230 232 233 236 239 240 241 240 239 238 238 238 237 239 243 245 249 254 255 256 257 259 260 259 256 255 255 256 255 254 253 252 251 250 250 250 250 250 251 253 254 254 253 253 251 250 250 252 255 258 261 264 268 271 275 279 282
249 249 249 249 250 249 248 247 245 240 235 232 230 228 228 228 227 225 225 226 224 225 229 230 228 227 227 228 230 232 233 236 238 239 240 240 240 240 239 239 239 239 242 244 248 253 256 256 257 259 261 262 262 260 258 258 258 257 256 254 252 250 250 250 250 251 251 252 252 252 251 251 251 251 252 254 257 259 262 265 268 272 276 279 280
248 248 248 248 249 249 248 247 246 244 240 236 233 231 229 229 228 226 225 225 225 224 227 230 230 229 231 232 232 232 233 234 237 238 238 239 241 242 241 240 240 240 242 245 248 253 257 258 258 258 261 264 265 265 264 263 262 262 261 258 255 252 251 250 250 250 250 250 250 250 249 249 250 251 253 255 256 259 262 266 269 273 277 278 279
248 247 247 247 248 249 248 247 246 245 243 240 236 234 232 230 229 228 226 226 227 226 225 228 231 231 232 234 234 233 233 234 235 236 237 238 240 242 243 242 242 244 244 245 249 253 256 258 258 257 258 262 265 267 268 267 267 266 264 261 258 255 252 250 250 250 250 249 248 248 247 247 248 250 253 256 258 259 263 266 270 274 277 279 280
249 248 247 247 247 248 249 248 247 245 244 242 240 237 236 234 232 231 229 227 228 229 226 225 229 231 232 234 234 234 233 233 234 235 236 238 240 242 242 242 243 247 248 247 250 253 255 257 258 258 258 260 263 266 268 269 269 268 267 264 262 259 255 252 250 249 249 248 247 246 246 246 247 249 252 257 260 262 264 267 270 274 277 279 279
250 249 248 247 247 247 248 248 247 246 245 243 242 240 238 237 235 234 233 231 230 231 230 226 225 228 231 233 234 234 234 233 234 235 236 238 239 241 242 241 243 247 249 249 251 254 256 257 258 258 259 259 261 264 267 269 270 272 271 269 266 263 260 255 251 249 248 248 247 246 246 246 246 249 252 257 261 264 267 269 272 274 276 276 277
252 251 250 249 248 247 247 248 248 248 247 245 243 242 240 239 239 237 237 237 235 233 232 229 226 226 229 231 234 235 236 235 235 235 236 237 239 240 241 242 243 247 248 249 251 254 257 259 259 258 258 258 260 263 266 268 271 273 274 271 268 265 263 260 256 253 249 249 249 248 248 248 248 250 254 257 261 264 268 271 273 275 274 273 272
252 252 252 251 250 249 248 247 248 248 248 247 246 244 242 240 239 239 239 239 240 239 237 233 230 227 227 229 231 234 237 238 238 237 237 237 239 240 241 242 242 244 246 247 249 251 255 258 260 260 259 258 259 261 265 268 270 272 273 272 269 265 263 261 259 257 253 250 249 250 250 251 252 253 255 258 260 263 266 269 273 275 274 271 269
253 252 252 252 252 251 250 249 248 248 248 249 248 246 245 243 241 240 240 240 241 242 242 239 235 232 230 230 230 231 234 237 240 240 240 239 240 241 243 243 243 242 244 246 248 250 253 256 258 259 260 260 261 262 264 267 269 270 271 271 269 266 263 261 259 257 255 253 250 250 251 252 253 254 255 257 259 261 264 266 269 271 271 270 269
255 254 253 252 252 252 252 251 250 249 249 248 248 248 247 246 244 242 241 240 240 241 242 243 241 238 236 235 235 233 233 234 237 240 242 243 244 244 244 244 244 244 244 245 248 250 251 253 254 256 257 259 262 263 264 267 269 269 269 269 268 266 264 262 260 257 256 254 251 250 250 251 253 254 255 257 259 261 263 265 266 266 267 269 269
256 256 255 254 253 252 252 252 252 251 250 249 249 248 248 247 246 245 243 242 241 241 241 242 243 242 240 240 240 240 238 237 236 237 239 241 244 246 246 246 245 245 245 246 249 251 251 251 252 254 255 256 259 262 264 266 267 268 269 269 268 267 266 264 262 259 257 256 254 252 252 252 253 255 256 258 259 260 262 264 264 262 263 266 267
255 255 256 256 256 255 253 252 252 251 251 250 250 249 249 248 248 247 247 245 244 243 242 242 242 243 242 242 242 244 245 244 243 242 241 240 240 241 243 245 246 247 247 248 250 252 252 251 252 253 254 256 257 260 263 265 265 267 268 269 268 268 267 266 265 263 261 260 257 255 254 254 254 255 257 258 259 260 262 262 261 260 261 263 263
253 253 254 255 255 256 255 254 253 252 251 251 250 249 249 249 249 249 249 248 247 246 245 244 244 243 244 243 243 244 245 247 248 248 247 246 245 243 241 241 243 245 247 248 250 252 253 251 252 253 255 257 259 259 261 263 264 265 266 267 267 267 266 265 266 266 265 263 260 256 255 255 254 254 256 257 259 260 260 259 258 258 260 261 259
252 252 252 253 253 254 254 254 254 253 252 251 251 250 249 249 249 249 249 249 249 249 248 247 247 246 245 245 245 245 245 247 248 249 250 250 250 249 247 244 242 242 243 246 248 251 253 253 253 254 255 257 258 259 259 260 261 262 263 264 264 264 264 264 265 266 266 265 263 259 257 255 254 254 255 256 258 258 256 255 256 257 258 259 258
253 252 252 251 252 252 252 252 253 252 252 252 252 251 250 249 248 248 248 248 248 249 249 249 249 249 248 247 247 247 247 247 247 248 250 251 252 252 252 250 248 245 243 243 245 248 252 254 254 254 255 255 256 258 258 258 258 259 260 261 262 261 261 262 263 264 264 264 263 262 260 258 255 254 254 254 255 255 253 252 253 255 256 257 257
253 252 252 251 251 251 251 251 251 251 251 252 252 252 251 250 250 249 248 248 248 248 248 249 249 250 250 250 249 249 249 249 249 248 249 250 251 252 253 253 253 252 249 246 245 246 249 253 255 254 254 253 254 255 256 256 256 256 257 257 259 259 259 259 260 261 261 261 260 260 260 260 258 256 254 253 253 253 252 252 252 253 254 255 256
253 252 252 251 251 250 250 250 250 250 250 250 251 251 251 251 251 251 250 249 249 249 248 249 249 249 250 250 250 250 250 250 250 250 250 250 250 251 252 252 252 253 253 252 250 249 249 252 254 255 255 254 254 255 255 255 254 254 254 255 255 256 257 257 257 257 258 259 259 259 259 260 260 258 257 255 254 253 252 252 251 251 252 254 255
255 254 253 252 251 251 251 250 250 250 250 250 250 250 251 251 251 251 251 251 251 251 251 251 250 250 250 250 250 250 251 251 251 251 251 251 252 251 252 252 252 252 252 252 252 251 251 251 253 255 255 255 255 255 255 255 254 253 252 253 253 253 254 255 256 256 256 257 258 257 257 257 258 258 257 257 256 254 253 252 251 251 252 253 254
256 256 255 254 253 252 251 251 251 251 251 251 251 251 251 251 251 251 251 252 252 252 252 252 252 252 252 252 252 251 251 252 252 253 253 253 253 253 253 253 253 252 252 252 251 251 251 251 252 253 254 255 255 255 255 254 254 253 252 251 251 251 252 252 253 255 255 255 255 256 255 255 256 257 257 257 256 256 255 254 254 253 254 254 255
255 255 256 256 255 254 254 253 253 253 253 253 252 252 252 251 251 252 252 252 252 253 253 253 253 253 254 254 254 254 253 253 253 253 253 253 254 254 254 254 254 254 253 253 252 251 250 250 251 252 253 254 255 255 255 254 253 252 252 251 250 250 250 251 252 253 254 254 254 254 254 254 254 255 257 257 256 256 256 256 256 255 255 256 256
253 253 254 254 255 255 255 255 255 255 255 254 254 254 253 253 253 253 253 253 253 253 253 253 254 254 254 255 255 255 255 254 254 254 254 254 254 254 254 254 254 254 254 254 253 252 251 250 250 251 252 253 254 255 255 255 253 252 251 251 250 249 249 250 251 251 252 253 254 254 253 253 253 253 254 256 256 256 255 256 256 256 256 256 257
253 253 253 253 253 254 254 254 255 255 256 256 255 255 254 254 254 254 254 254 253 253 253 254 254 254 255 255 255 255 256 255 255 255 255 255 254 254 254 254 254 254 255 254 254 253 252 251 250 251 251 251 252 253 254 255 254 252 251 251 250 250 249 249 250 251 251 252 253 253 253 252 252 252 253 254 255 255 255 255 256 256 256 257 257
254 254 254 254 253 253 253 253 253 253 254 254 254 255 255 255 255 255 255 255 255 255 255 255 255 255 256 256 256 256 256 256 256 256 256 256 256 255 255 255 255 254 255 255 255 254 253 251 251 250 251 251 252 252 252 253 253 253 252 251 250 250 250 250 250 250 250 251 252 253 253 253 253 253 253 253 253 254 254 254 255 256 257 258 258
252 252 253 254 254 254 254 253 253 253 253 253 253 253 254 254 255 255 255 256 256 256 256 256 257 257 257 257 257 258 258 257 257 257 257 257 257 256 256 256 256 255 255 255 255 254 254 253 252 251 251 251 251 251 251 252 253 252 252 251 251 250 251 250 250 250 250 250 251 252 253 253 253 253 253 253 252 252 252 253 254 255 256 258 258
252 250 250 251 252 253 254 254 253 253 253 253 253 253 253 253 254 254 255 255 255 256 256 257 257 258 258 259 259 259 259 259 259 258 258 258 258 257 257 256 256 256 255 255 254 254 254 253 253 253 252 251 251 251 250 250 251 252 252 251 251 250 250 250 250 251 251 250 251 252 252 252 253 253 254 254 253 252 252 252 253 254 255 256 257
255 253 251 250 250 251 252 253 253 253 253 253 253 254 254 254 254 254 254 254 255 255 256 256 257 258 259 259 260 260 260 260 260 260 260 259 259 259 259 258 257 257 256 255 254 254 254 253 252 253 253 252 252 252 252 250 250 251 251 251 251 250 249 249 249 250 251 251 251 251 252 252 252 253 254 254 254 254 254 253 253 254 255 256 257
256 255 254 252 251 252 253 253 253 253 253 254 254 254 254 255 255 255 255 255 255 256 256 256 257 257 258 258 259 260 260 261 261 261 261 261 260 260 260 259 259 258 257 256 254 254 253 253 252 252 252 252 252 253 253 252 250 250 250 250 250 250 250 249 249 249 250 251 251 251 251 252 252 252 253 254 255 255 255 255 255 255 256 257 257
253 254 254 253 253 253 254 255 254 254 254 254 255 255 255 256 256 256 256 256 256 257 257 257 257 257 257 258 258 259 260 260 261 261 261 261 261 261 260 260 259 259 258 257 255 254 253 252 252 252 252 253 252 252 253 253 252 250 249 249 249 249 249 249 250 249 249 249 250 250 251 251 251 251 252 253 254 255 255 256 257 257 258 259 259
253 255 256 256 255 255 255 256 256 255 255 255 256 256 257 257 257 258 258 258 258 258 258 258 258 258 258 259 259 259 259 260 260 261 261 261 260 260 260 260 259 259 258 257 256 255 253 252 252 252 252 252 253 252 253 253 252 251 250 249 248 248 248 248 249 250 250 250 249 249 249 250 251 251 251 252 253 254 255 256 256 257 258 259 260
255 256 257 258 258 258 258 257 257 256 256 256 256 256 257 257 258 258 259 259 260 260 260 260 261 261 261 261 261 261 261 261 261 261 261 260 260 259 259 259 259 258 257 257 256 255 254 253 252 251 251 251 252 252 252 252 252 251 250 249 248 248 247 246 247 248 249 250 250 249 249 250 251 250 250 250 251 252 254 255 256 257 258 259 260
255 256 257 258 258 258 258 258 258 258 257 257 257 257 257 257 258 258 259 260 261 262 262 263 263 263 263 264 264 264 264 263 263 263 263 262 261 261 259 258 258 257 257 257 257 256 255 254 253 252 251 250 250 251 251 252 251 251 250 249 248 247 246 245 246 246 247 249 250 250 250 250 250 250 250 250 250 251 252 254 255 256 257 258 259
254 255 256 256 256 255 256 257 258 258 259 259 259 259 259 259 259 259 260 261 262 263 264 264 264 264 264 263 263 263 263 263 264 264 264 264 263 262 260 258 258 257 257 257 257 257 256 255 254 253 251 250 249 249 250 250 250 250 249 248 248 248 246 244 244 245 246 247 248 249 249 249 250 251 250 250 250 250 251 253 254 255 256 257 258
Height
10708 10709 10710 10712 10713 10714 10715 10715 10715 10716 10718 10720 10721 10722 10724 10725 10727 10728 10729 10731 10732 10733 10735 10737 10740 10743 10744 10745 10745 10746 10747 10748 10750 10752 10754 10754 10755 10756 10757 10759 10761 10763 10765 10767 10768 10770 10772 10773 10775 10776 10777 10778 10779 10781 10781 10782 10782 10783 10784 10785 10785 10786 10787 10787 10788 10788 10788 10789 10789 10789 10790 10791 10792 10792 10793 10793 10792 10792 10791 10791 10790 10789 10789 10788 10787
10703 10704 10705 10707 10709 10711 10711 10710 10711 10712 10714 10716 10718 10719 10720 10722 10723 10725 10727 10728 10729 10731 10733 10734 10736 10739 10741 10742 10742 10743 10744 10746 10748 10750 10751 10752 10753 10753 10754 10756 10758 10760 10762 10763 10765 10767 10769 10771 10772 10774 10775 10776 10777 10778 10778 10779 10780 10781 10782 10782 10783 10783 10784 10785 10786 10786 10786 10786 10787 10787 10788 10789 10790 10790 10791 10791 10790 10790 10790 10789 10788 10787 10787 10787 10786
10698 10698 10699 10702 10705 10709 10708 10706 10707 10708 10709 10712 10713 10715 10717 10719 10720 10722 10723 10725 10726 10728 10730 10731 10733 10735 10737 10739 10739 10740 10742 10744 10745 10747 10748 10749 10750 10751 10751 10752 10754 10756 10758 10760 10761 10763 10765 10767 10769 10771 10772 10773 10774 10775 10775 10776 10777 10778 10779 10780 10780 10781 10782 10783 10783 10784 10784 10784 10785 10785 10786 10787 10788 10788 10788 10789 10789 10789 10788 10787 10787 10786 10785 10785 10784
10691 10693 10694 10696 10700 10705 10706 10701 10701 10704 10705 10708 10710 10711 10713 10715 10717 10719 10720 10722 10723 10725 10727 10728 10729 10731 10733 10735 10736 10738 10739 10741 10743 10743 10745 10746 10747 10748 10748 10749 10750 10752 10754 10756 10758 10760 10762 10763 10765 10767 10769 10769 10770 10771 10772 10773 10774 10775 10776 10777 10777 10778 10779 10780 10781 10781 10781 10782 10782 10783 10784 10785 10786 10786 10786 10787 10787 10787 10786 10786 10785 10784 10783 10783 10782
10685 10687 10689 10691 10693 10698 10700 10696 10697 10701 10702 10704 10706 10708 10709 10711 10713 10715 10716 10718 10719 10721 10723 10724 10725 10726 10728 10731 10733 10735 10736 10738 10739 10740 10741 10743 10744 10745 10745 10746 10747 10748 10750 10752 10754 10756 10758 10760 10761 10763 10765 10766 10767 10768 10769 10770 10771 10772 10773 10774 10774 10775 10776 10777 10778 10778 10779 10779 10780 10781 10782 10783 10783 10784 10784 10784 10785 10785 10785 10784 10783 10782 10781 10781 10780
10680 10682 10684 10686 10688 10691 10693 10693 10696 10697 10697 10698 10701 10704 10705 10707 10709 10711 10713 10714 10716 10718 10719 10721 10722 10722 10724 10726 10729 10731 10733 10734 10735 10737 10738 10739 10740 10741 10742 10743 10744 10745 10747 10749 10751 10752 10755 10756 10758 10759 10761 10762 10763 10765 10766 10767 10768 10769 10770 10771 10772 10772 10773 10774 10775 10776 10776 10777 10778 10779 10780 10781 10781 10781 10782 10782 10783 10783 10783 10782 10781 10780 10779 10779 10778
10676 10677 10679 10680 10683 10685 10687 10690 10691 10690 10691 10694 10697 10700 10702 10703 10704 10706 10708 10710 10712 10714 10716 10717 10718 10719 10721 10722 10724 10727 10729 10730 10731 10733 10734 10735 10736 10737 10738 10739 10740 10742 10743 10745 10747 10749 10751 10753 10754 10756 10757 10758 10760 10761 10763 10764 10765 10767 10768 10769 10769 10770 10771 10771 10771 10772 10773 10774 10775 10776 10777 10778 10778 10778 10779 10779 10780 10780 10780 10780 10779 10779 10777 10777 10776
10672 10673 10674 10675 10678 10679 10680 10683 10684 10685 10689 10692 10695 10698 10700 10700 10701 10703 10704 10706 10708 10710 10712 10714 10716 10717 10718 10718 10720 10722 10724 10727 10728 10729 10730 10731 10732 10734 10735 10736 10737 10738 10739 10741 10743 10745 10747 10749 10751 10752 10754 10755 10757 10758 10759 10761 10762 10764 10765 10766 10767 10767 10767 10768 10768 10769 10769 10770 10771 10773 10774 10775 10775 10775 10776 10776 10777 10777 10778 10778 10777 10777 10776 10774 10774
10667 10669 10670 10672 10673 10673 10674 10678 10680 10683 10686 10689 10692 10694 10696 10698 10699 10700 10701 10702 10703 10705 10708 10710 10712 10713 10714 10716 10717 10718 10720 10722 10725 10726 10726 10727 10728 10730 10732 10733 10733 10734 10735 10737 10738 10741 10743 10745 10747 10749 10750 10752 10754 10755 10756 10757 10759 10760 10762 10763 10763 10764 10764 10764 10765 10765 10766 10767 10768 10769 10770 10771 10772 10772 10772 10773 10773 10774 10774 10775 10774 10774 10774 10773 10772
10663 10665 10666 10667 10667 10666 10668 10673 10676 10679 10682 10685 10688 10690 10692 10693 10694 10696 10697 10698 10699 10702 10705 10707 10709 10710 10711 10713 10713 10714 10716 10718 10720 10722 10723 10723 10725 10727 10728 10729 10730 10731 10732 10733 10734 10736 10739 10741 10743 10745 10747 10748 10750 10752 10753 10754 10755 10757 10758 10759 10760 10761 10761 10762 10762 10762 10763 10764 10764 10765 10766 10767 10768 10768 10768 10769 10770 10770 10771 10772 10772 10771 10771 10770 10770
10658 10660 10660 10661 10661 10662 10664 10668 10671 10674 10679 10682 10685 10687 10687 10686 10688 10692 10695 10696 10697 10699 10702 10704 10705 10706 10708 10709 10710 10711 10712 10714 10716 10718 10719 10720 10721 10723 10725 10726 10727 10728 10729 10730 10731 10732 10734 10737 10739 10740 10742 10744 10746 10748 10749 10751 10752 10753 10755 10756 10757 10757 10758 10759 10759 10759 10760 10760 10761 10761 10762 10763 10764 10765 10765 10766 10766 10767 10768 10769 10769 10768 10768 10768 10768
10652 10654 10655 10656 10657 10658 10660 10663 10666 10670 10675 10678 10679 10680 10680 10681 10683 10688 10690 10691 10693 10695 10697 10698 10700 10702 10704 10705 10706 10707 10708 10710 10712 10714 10715 10716 10717 10719 10721 10723 10723 10724 10725 10726 10727 10729 10730 10733 10735 10736 10738 10740 10741 10743 10745 10747 10748 10749 10751 10752 10753 10754 10755 10756 10756 10756 10757 10757 10757 10757 10757 10758 10760 10761 10762 10762 10762 10763 10765 10765 10765 10765 10766 10765 10765
10647 10649 10650 10651 10652 10654 10656 10659 10662 10665 10669 10671 10672 10673 10675 10676 10678 10681 10684 10685 10687 10690 10692 10693 10695 10697 10700 10701 10702 10704 10705 10706 10707 10710 10711 10712 10713 10715 10717 10719 10720 10721 10722 10723 10724 10725 10727 10729 10730 10732 10734 10735 10737 10739 10741 10742 10744 10745 10747 10748 10749 10750 10751 10752 10753 10753 10753 10754 10753 10753 10753 10754 10756 10757 10758 10758 10759 10760 10761 10762 10762 10762 10763 10763 10762
10643 10645 10646 10646 10648 10650 10652 10654 10656 10660 10662 10663 10665 10668 10670 10672 10673 10675 10677 10679 10682 10684 10686 10688 10689 10691 10695 10697 10698 10700 10701 10702 10703 10705 10708 10709 10710 10710 10712 10715 10716 10717 10718 10719 10720 10721 10723 10725 10726 10728 10729 10731 10733 10735 10737 10738 10740 10741 10743 10744 10745 10747 10747 10748 10749 10749 10750 10750 10750 10750 10750 10751 10752 10753 10754 10755 10756 10757 10758 10758 10759 10759 10759 10759 10759
10639 10640 10641 10642 10643 10645 10647 10649 10651 10654 10656 10658 10660 10662 10664 10667 10668 10669 10671 10673 10676 10678 10681 10683 10684 10686 10690 10692 10693 10695 10697 10698 10699 10701 10704 10706 10706 10706 10707 10710 10712 10713 10714 10715 10716 10718 10719 10721 10722 10724 10725 10727 10728 10730 10732 10734 10735 10737 10739 10740 10742 10743 10744 10744 10745 10746 10746 10746 10746 10746 10747 10747 10749 10750 10751 10752 10753 10753 10754 10755 10755 10756 10756 10756 10756
10634 10636 10637 10638 10639 10641 10643 10645 10646 10649 10651 10653 10654 10655 10658 10661 10662 10663 10665 10667 10670 10672 10675 10677 10679 10682 10684 10687 10689 10691 10692 10694 10696 10698 10700 10701 10702 10703 10704 10705 10707 10709 10710 10711 10713 10714 10716 10717 10718 10720 10721 10722 10724 10726 10727 10729 10731 10733 10734 10736 10738 10739 10740 10741 10741 10742 10742 10742 10743 10743 10744 10744 10745 10746 10747 10748 10749 10749 10750 10751 10751 10752 10752 10752 10752
10630 10632 10633 10634 10635 10637 10639 10641 10642 10644 10646 10648 10649 10650 10654 10656 10656 10658 10660 10662 10665 10667 10670 10672 10675 10678 10679 10682 10684 10686 10687 10689 10691 10693 10695 10696 10698 10699 10701 10702 10703 10704 10706 10708 10709 10711 10712 10713 10715 10716 10717 10718 10720 10721 10723 10724 10726 10728 10730 10732 10733 10734 10736 10737 10738 10738 10738 10739 10739 10740 10740 10741 10742 10743 10743 10744 10745 10745 10746 10746 10747 10747 10748 10748 10748
10627 10628 10629 10630 10631 10633 10635 10637 10639 10640 10641 10643 10644 10646 10649 10651 10652 10655 10657 10659 10661 10663 10665 10667 10670 10673 10675 10677 10679 10680 10682 10683 10686 10688 10690 10692 10693 10695 10697 10699 10700 10701 10702 10704 10705 10707 10708 10710 10711 10712 10713 10715 10716 10717 10718 10720 10722 10724 10725 10727 10729 10730 10731 10733 10734 10734 10735 10735 10735 10736 10737 10738 10738 10739 10739 10740 10741 10741 10741 10742 10742 10743 10743 10743 10744
10623 10624 10625 10626 10627 10629 10631 10633 10635 10637 10638 10639 10640 10642 10644 10646 10649 10652 10654 10656 10657 10658 10661 10663 10666 10669 10670 10672 10674 10675 10677 10678 10681 10684 10686 10688 10689 10691 10693 10695 10696 10697 10698 10699 10701 10703 10704 10706 10707 10708 10709 10711 10712 10713 10714 10716 10717 10719 10721 10723 10725 10726 10727 10728 10730 10730 10731 10731 10732 10732 10733 10734 10735 10735 10736 10736 10736 10737 10737 10737 10737 10738 10739 10739 10739
10619 10621 10622 10622 10624 10625 10627 10629 10631 10633 10634 10636 10637 10638 10639 10642 10645 10648 10650 10652 10654 10655 10657 10659 10662 10664 10666 10668 10669 10670 10672 10674 10677 10680 10683 10684 10685 10686 10688 10690 10692 10693 10694 10695 10697 10698 10700 10701 10703 10704 10705 10706 10708 10709 10710 10711 10712 10714 10716 10718 10720 10721 10722 10723 10725 10726 10727 10727 10728 10728 10729 10730 10730 10731 10731 10731 10731 10732 10733 10733 10733 10733 10734 10734 10735
10615 10617 10618 10619 10620 10621 10623 10625 10627 10629 10631 10632 10634 10635 10636 10638 10640 10643 10646 10648 10650 10651 10652 10654 10657 10659 10661 10663 10664 10666 10668 10670 10673 10676 10678 10679 10680 10681 10684 10685 10687 10688 10689 10690 10692 10694 10695 10696 10698 10699 10700 10702 10703 10705 10706 10707 10708 10710 10711 10713 10715 10716 10718 10719 10719 10720 10722 10722 10723 10724 10725 10725 10725 10726 10727 10727 10727 10728 10728 10728 10728 10729 10729 10730 10730
10611 10612 10613 10614 10616 10617 10619 10621 10623 10624 10626 10628 10630 10631 10632 10634 10636 10638 10641 10643 10645 10646 10648 10649 10652 10654 10656 10658 10660 10662 10663 10666 10668 10671 10672 10674 10675 10677 10679 10680 10681 10682 10684 10686 10687 10689 10690 10691 10693 10694 10696 10697 10699 10700 10701 10703 10704 10706 10707 10708 10709 10711 10712 10713 10714 10715 10716 10718 10718 10719 10720 10721 10721 10722 10722 10722 10723 10723 10724 10724 10724 10724 10724 10725 10725
10605 10607 10609 10610 10612 10613 10615 10617 10619 10620 10622 10624 10626 10627 10629 10630 10632 10634 10636 10638 10640 10642 10643 10644 10647 10649 10651 10653 10655 10657 10659 10661 10663 10665 10667 10669 10670 10672 10674 10676 10677 10677 10679 10681 10682 10683 10684 10685 10687 10688 10690 10692 10694 10695 10696 10698 10700 10701 10703 10703 10704 10705 10706 10707 10709 10710 10711 10712 10713 10714 10715 10716 10717 10717 10717 10717 10718 10719 10719 10720 10720 10720 10719 10720 10720
10600 10602 10604 10606 10608 10609 10611 10612 10614 10616 10618 10620 10621 10623 10625 10627 10628 10630 10632 10633 10635 10637 10639 10640 10642 10644 10646 10648 10650 10652 10654 10655 10657 10660 10662 10664 10665 10667 10669 10671 10672 10672 10673 10677 10677 10678 10679 10680 10680 10682 10685 10687 10688 10690 10691 10693 10694 10696 10698 10699 10699 10699 10700 10702 10703 10704 10705 10707 10708 10709 10710 10712 10712 10712 10713 10712 10713 10714 10715 10715 10716 10716 10715 10715 10715
10595 10597 10599 10601 10603 10605 10606 10608 10609 10611 10613 10615 10617 10619 10621 10622 10624 10626 10627 10629 10630 10632 10633 10635 10637 10639 10640 10643 10645 10647 10648 10650 10651 10654 10656 10658 10660 10661 10663 10666 10668 10667 10669 10671 10673 10673 10673 10673 10675 10677 10679 10680 10682 10684 10686 10688 10689 10691 10693 10694 10694 10694 10695 10697 10697 10698 10700 10701 10702 10704 10705 10706 10707 10708 10708 10708 10708 10709 10709 10710 10711 10712 10712 10710 10710
10590 10592 10594 10596 10598 10600 10602 10603 10605 10607 10609 10611 10613 10615 10616 10618 10619 10621 10622 10624 10625 10627 10628 10630 10632 10634 10636 10637 10640 10641 10643 10644 10646 10648 10650 10652 10654 10656 10658 10661 10663 10663 10664 10666 10668 10668 10667 10667 10670 10671 10672 10674 10677 10679 10681 10683 10684 10685 10687 10688 10689 10689 10690 10691 10692 10693 10694 10696 10697 10698 10700 10701 10703 10703 10704 10704 10704 10704 10704 10704 10704 10706 10707 10706 10705
10586 10587 10589 10591 10593 10595 10597 10599 10600 10602 10604 10606 10608 10610 10611 10613 10614 10616 10617 10619 10620 10622 10623 10625 10627 10629 10631 10633 10634 10636 10637 10639 10640 10642 10645 10646 10648 10650 10652 10655 10658 10658 10659 10660 10662 10662 10661 10662 10665 10665 10666 10669 10671 10674 10675 10677 10679 10680 10682 10683 10683 10684 10685 10685 10686 10688 10689 10690 10692 10693 10695 10696 10698 10699 10700 10700 10700 10700 10700 10700 10698 10699 10700 10701 10701
10581 10583 10584 10586 10588 10590 10592 10594 10596 10598 10599 10601 10602 10604 10606 10607 10609 10610 10612 10613 10615 10616 10618 10620 10621 10623 10625 10627 10629 10630 10632 10633 10635 10636 10639 10640 10642 10644 10646 10649 10651 10653 10653 10654 10655 10655 10656 10658 10659 10659 10661 10663 10666 10668 10670 10671 10672 10674 10676 10677 10678 10678 10679 10680 10681 10682 10683 10684 10686 10688 10689 10690 10692 10694 10694 10694 10695 10695 10695 10696 10695 10694 10694 10695 10696
10576 10577 10579 10581 10582 10584 10586 10588 10590 10592 10594 10595 10596 10598 10600 10601 10603 10605 10606 10608 10609 10611 10612 10614 10615 10617 10619 10620 10622 10624 10626 10627 10629 10631 10633 10634 10636 10638 10640 10642 10644 10646 10648 10649 10648 10648 10649 10652 10653 10653 10655 10659 10660 10662 10664 10665 10665 10667 10669 10671 10672 10673 10673 10674 10676 10676 10677 10678 10681 10682 10682 10684 10686 10687 10688 10688 10689 10690 10690 10691 10691 10690 10689 10689 10691
10571 10572 10573 10575 10576 10578 10580 10582 10584 10586 10587 10589 10590 10592 10593 10595 10596 10598 10599 10601 10603 10604 10606 10607 10609 10611 10612 10614 10615 10617 10619 10621 10623 10625 10626 10628 10630 10632 10634 10636 10638 10640 10642 10644 10643 10640 10643 10646 10647 10647 10650 10653 10656 10656 10657 10658 10658 10660 10662 10663 10665 10667 10668 10669 10670 10672 10672 10673 10675 10676 10676 10678 10679 10680 10681 10682 10683 10684 10684 10685 10685 10686 10686 10685 10686
10565 10566 10568 10569 10570 10572 10574 10576 10577 10579 10581 10582 10584 10585 10587 10588 10589 10591 10592 10594 10596 10597 10599 10600 10602 10603 10605 10607 10609 10610 10611 10613 10615 10617 10619 10621 10623 10625 10628 10630 10632 10634 10636 10638 10638 10634 10635 10640 10641 10641 10644 10646 10649 10652 10651 10650 10652 10654 10656 10657 10658 10660 10662 10662 10663 10666 10667 10668 10669 10670 10671 10672 10673 10674 10674 10675 10676 10677 10679 10679 10680 10680 10681 10681 10681
10558 10559 10561 10562 10563 10565 10566 10568 10570 10572 10573 10575 10577 10578 10579 10581 10582 10584 10585 10586 10588 10589 10591 10593 10594 10596 10598 10600 10602 10603 10604 10605 10607 10609 10611 10613 10615 10617 10620 10622 10625 10628 10630 10632 10633 10628 10626 10632 10635 10635 10637 10640 10642 10645 10645 10644 10645 10648 10650 10651 10652 10653 10655 10655 10656 10658 10661 10663 10665 10665 10666 10666 10666 10667 10668 10669 10670 10672 10673 10674 10674 10675 10675 10676 10677
10550 10551 10553 10554 10555 10557 10558 10560 10561 10563 10565 10567 10569 10570 10572 10574 10575 10576 10577 10579 10580 10581 10583 10584 10586 10588 10589 10591 10593 10595 10596 10597 10599 10600 10602 10604 10606 10608 10611 10614 10616 10620 10623 10626 10628 10624 10619 10622 10626 10628 10630 10634 10635 10636 10638 10639 10639 10642 10644 10644 10646 10647 10648 10649 10650 10652 10654 10656 10658 10659 10660 10661 10660 10661 10663 10664 10664 10665 10666 10668 10669 10670 10670 10671 10672
10541 10542 10543 10545 10546 10548 10549 10550 10552 10554 10556 10558 10560 10562 10564 10565 10566 10568 10569 10571 10572 10573 10574 10576 10577 10579 10581 10583 10585 10586 10588 10589 10590 10592 10594 10595 10597 10599 10601 10604 10606 10610 10615 10618 10621 10620 10614 10612 10616 10619 10622 10626 10628 10627 10629 10632 10633 10635 10638 10638 10639 10641 10642 10643 10644 10645 10647 10649 10651 10652 10654 10654 10655 10657 10660 10659 10658 10659 10660 10662 10663 10664 10665 10666 10667
10531 10532 10533 10535 10536 10538 10539 10540 10541 10544 10546 10548 10551 10552 10554 10556 10557 10559 10560 10562 10563 10565 10566 10568 10569 10570 10572 10573 10575 10577 10578 10579 10581 10583 10585 10586 10588 10590 10592 10594 10597 10599 10605 10610 10612 10614 10611 10606 10606 10610 10612 10616 10620 10619 10621 10624 10626 10628 10631 10631 10632 10633 10635 10636 10637 10638 10640 10642 10644 10646 10647 10649 10650 10652 10654 10653 10653 10653 10655 10656 10658 10659 10661 10661 10661
10520 10522 10523 10524 10526 10527 10528 10529 10531 10534 10536 10539 10541 10543 10544 10546 10547 10549 10551 10552 10554 10556 10558 10560 10561 10562 10563 10564 10565 10567 10568 10569 10571 10573 10575 10577 10579 10581 10583 10585 10588 10590 10594 10599 10603 10605 10606 10603 10599 10599 10603 10606 10610 10611 10612 10616 10618 10620 10622 10623 10625 10626 10627 10628 10630 10631 10633 10635 10638 10640 10642 10643 10644 10645 10646 10647 10647 10648 10650 10651 10652 10654 10655 10655 10656
10510 10511 10512 10514 10516 10517 10518 10519 10521 10524 10526 10528 10531 10533 10535 10536 10537 10539 10540 10542 10545 10547 10549 10551 10552 10552 10553 10554 10555 10558 10559 10560 10561 10563 10566 10568 10569 10572 10574 10576 10579 10582 10585 10589 10593 10595 10598 10598 10593 10591 10593 10596 10599 10601 10603 10606 10609 10611 10613 10614 10616 10618 10619 10620 10622 10623 10626 10629 10631 10633 10635 10636 10637 10638 10639 10639 10640 10642 10644 10645 10645 10647 10648 10649 10650
10499 10500 10502 10504 10506 10507 10508 10509 10512 10515 10517 10518 10521 10523 10525 10526 10527 10528 10530 10533 10536 10538 10539 10541 10541 10542 10543 10544 10546 10548 10550 10551 10552 10554 10556 10559 10561 10562 10565 10566 10569 10572 10575 10578 10582 10586 10589 10590 10588 10585 10585 10587 10589 10590 10592 10596 10600 10601 10603 10605 10607 10610 10611 10613 10614 10616 10619 10621 10623 10625 10627 10629 10630 10631 10632 10633 10634 10636 10637 10638 10638 10639 10640 10641 10642
10488 10489 10491 10493 10495 10496 10498 10500 10503 10505 10507 10509 10511 10513 10514 10515 10516 10518 10521 10523 10526 10528 10529 10530 10530 10532 10533 10535 10537 10539 10541 10542 10543 10544 10546 10549 10551 10553 10554 10556 10558 10562 10565 10567 10571 10575 10579 10581 10581 10579 10578 10579 10581 10581 10580 10584 10590 10591 10592 10595 10599 10600 10602 10604 10606 10608 10610 10612 10615 10617 10619 10621 10623 10623 10624 10625 10628 10629 10630 10631 10631 10631 10632 10633 10634
10477 10478 10481 10482 10483 10485 10488 10491 10494 10496 10498 10500 10501 10502 10503 10504 10506 10508 10511 10513 10515 10516 10518 10519 10520 10522 10523 10525 10526 10528 10530 10532 10533 10534 10536 10538 10541 10542 10543 10545 10548 10550 10553 10556 10559 10563 10567 10570 10571 10570 10570 10571 10572 10572 10570 10572 10578 10581 10582 10586 10589 10590 10593 10596 10598 10600 10602 10604 10606 10609 10610 10612 10614 10615 10616 10618 10620 10621 10622 10623 10623 10624 10624 10625 10626
10467 10468 10470 10471 10472 10474 10477 10481 10484 10486 10488 10488 10489 10490 10492 10493 10496 10498 10500 10501 10503 10505 10507 10508 10509 10511 10513 10514 10516 10517 10519 10522 10523 10524 10525 10527 10530 10532 10532 10534 10537 10539 10541 10544 10547 10550 10554 10559 10561 10561 10562 10563 10563 10561 10560 10561 10565 10570 10572 10577 10580 10580 10583 10588 10589 10590 10593 10595 10597 10599 10600 10602 10605 10608 10609 10610 10611 10612 10614 10614 10615 10615 10616 10617 10619
10455 10457 10458 10459 10460 10462 10466 10470 10472 10474 10475 10475 10476 10477 10480 10482 10485 10487 10488 10490 10492 10494 10495 10497 10498 10500 10502 10503 10505 10507 10509 10511 10512 10514 10515 10516 10518 10521 10521 10523 10526 10528 10531 10533 10535 10538 10541 10546 10550 10550 10552 10554 10551 10550 10551 10551 10553 10558 10562 10566 10570 10571 10573 10578 10580 10580 10583 10585 10587 10589 10591 10594 10596 10598 10600 10601 10601 10603 10605 10606 10606 10607 10609 10610 10612
10440 10442 10444 10446 10448 10450 10454 10457 10459 10461 10461 10461 10462 10465 10468 10470 10472 10474 10477 10478 10480 10482 10484 10486 10487 10488 10490 10493 10494 10496 10497 10499 10501 10503 10504 10505 10507 10509 10511 10512 10513 10516 10520 10522 10524 10526 10529 10534 10538 10539 10541 10542 10538 10537 10541 10541 10542 10546 10551 10555 10560 10562 10564 10568 10569 10570 10572 10575 10577 10579 10581 10584 10586 10587 10588 10590 10591 10593 10595 10596 10597 10599 10601 10602 10603
10425 10428 10431 10433 10435 10437 10441 10443 10446 10447 10447 10448 10450 10453 10455 10458 10460 10462 10465 10467 10468 10470 10472 10474 10476 10477 10479 10481 10483 10485 10486 10487 10489 10491 10492 10493 10494 10496 10499 10500 10501 10503 10506 10509 10512 10514 10517 10521 10525 10527 10529 10530 10527 10525 10529 10532 10532 10535 10540 10544 10549 10552 10554 10557 10559 10559 10560 10564 10568 10570 10570 10572 10574 10576 10576 10578 10581 10583 10585 10587 10589 10591 10593 10593 10594
10411 10415 10418 10420 10423 10426 10428 10430 10431 10432 10433 10435 10438 10441 10443 10445 10447 10450 10452 10454 10456 10458 10460 10462 10464 10466 10468 10469 10471 10473 10474 10475 10477 10478 10480 10482 10483 10484 10486 10487 10488 10489 10491 10495 10498 10500 10503 10508 10513 10515 10515 10515 10517 10515 10515 10521 10525 10526 10529 10533 10536 10540 10544 10547 10549 10549 10549 10553 10558 10558 10558 10560 10562 10565 10565 10566 10570 10573 10575 10577 10580 10582 10584 10585 10586
10397 10401 10404 10407 10411 10414 10416 10417 10418 10419 10420 10423 10426 10429 10430 10432 10434 10437 10440 10442 10445 10447 10449 10450 10452 10454 10456 10457 10459 10460 10461 10462 10464 10465 10467 10469 10470 10471 10472 10473 10474 10474 10475 10479 10483 10486 10489 10493 10499 10503 10501 10502 10506 10505 10502 10508 10515 10517 10519 10521 10523 10528 10532 10536 10538 10538 10539 10542 10543 10546 10548 10548 10550 10554 10555 10556 10560 10563 10564 10567 10569 10572 10575 10576 10577
10384 10385 10388 10394 10399 10403 10405 10405 10405 10407 10409 10412 10415 10416 10418 10420 10422 10425 10428 10431 10433 10435 10436 10437 10439 10441 10442 10444 10446 10448 10448 10449 10449 10451 10453 10455 10457 10458 10457 10458 10458 10458 10460 10462 10466 10470 10475 10479 10485 10490 10490 10490 10494 10495 10492 10495 10502 10505 10507 10509 10513 10517 10521 10525 10527 10527 10528 10529 10529 10534 10538 10536 10537 10543 10545 10546 10550 10552 10553 10556 10559 10562 10565 10566 10568
10375 10374 10376 10382 10388 10392 10392 10391 10391 10394 10397 10401 10403 10404 10406 10408 10410 10413 10416 10419 10421 10422 10423 10424 10426 10428 10429 10431 10434 10435 10435 10435 10435 10436 10438 10439 10441 10441 10441 10441 10441 10442 10444 10445 10448 10453 10459 10465 10471 10476 10479 10479 10480 10483 10482 10482 10487 10491 10493 10498 10503 10505 10508 10513 10515 10515 10516 10516 10517 10521 10526 10525 10525 10531 10534 10536 10539 10541 10543 10547 10549 10551 10554 10557 10559
10366 10366 10367 10372 10378 10380 10378 10376 10377 10380 10383 10387 10390 10392 10394 10396 10399 10401 10404 10406 10408 10410 10411 10412 10413 10415 10417 10419 10420 10421 10422 10422 10421 10421 10421 10421 10423 10424 10424 10424 10423 10425 10428 10429 10431 10437 10444 10451 10457 10462 10466 10467 10467 10469 10470 10470 10473 10475 10479 10487 10490 10490 10494 10501 10504 10504 10503 10503 10504 10508 10513 10515 10514 10516 10522 10525 10528 10531 10534 10537 10539 10542 10545 10547 10550
10354 10356 10359 10364 10368 10367 10363 10360 10361 10365 10369 10373 10376 10379 10382 10384 10387 10390 10392 10394 10396 10397 10398 10400 10401 10403 10404 10404 10406 10407 10408 10407 10406 10405 10403 10403 10405 10406 10405 10405 10406 10409 10411 10412 10416 10423 10429 10437 10443 10447 10451 10453 10454 10456 10456 10456 10457 10459 10466 10474 10474 10473 10482 10490 10492 10491 10491 10493 10494 10495 10500 10504 10502 10502 10509 10515 10518 10523 10527 10528 10530 10533 10535 10537 10540
10344 10347 10350 10354 10356 10353 10347 10344 10347 10352 10356 10359 10362 10366 10369 10373 10376 10379 10381 10383 10384 10385 10386 10387 10388 10388 10389 10389 10390 10391 10392 10392 10391 10389 10387 10386 10386 10385 10383 10384 10390 10394 10395 10396 10403 10411 10416 10422 10427 10431 10435 10437 10439 10441 10441 10441 10442 10444 10451 10458 10457 10457 10468 10476 10477 10478 10481 10484 10482 10481 10487 10493 10490 10490 10498 10504 10509 10515 10519 10519 10521 10522 10524 10526 10530